Year,Month,Day,Hour,Minute,Value (Times are PST for windgust in km/hr)
2006,01,31,00,00,6.40
2006,01,31,00,01,6.40
2006,01,31,00,02,6.40
2006,01,31,00,03,6.40
2006,01,31,00,04,6.40
2006,01,31,00,05,6.40
2006,01,31,00,06,6.40
2006,01,31,00,07,1.60
2006,01,31,00,08,1.60
2006,01,31,00,09,3.20
2006,01,31,00,10,6.40
2006,01,31,00,11,4.80
2006,01,31,00,12,3.20
2006,01,31,00,13,1.60
2006,01,31,00,14,3.20
2006,01,31,00,15,1.60
2006,01,31,00,16,1.60
2006,01,31,00,17,0.00
2006,01,31,00,18,3.20
2006,01,31,00,19,3.20
2006,01,31,00,20,1.60
2006,01,31,00,21,12.90
2006,01,31,00,22,11.30
2006,01,31,00,23,8.10
2006,01,31,00,24,9.60
2006,01,31,00,25,11.30
2006,01,31,00,26,9.60
2006,01,31,00,27,8.10
2006,01,31,00,28,8.10
2006,01,31,00,29,17.70
2006,01,31,00,30,14.50
2006,01,31,00,31,8.10
2006,01,31,00,32,3.20
2006,01,31,00,33,3.20
2006,01,31,00,34,3.20
2006,01,31,00,35,3.20
2006,01,31,00,36,9.60
2006,01,31,00,37,6.40
2006,01,31,00,38,17.70
2006,01,31,00,39,11.30
2006,01,31,00,40,9.60
2006,01,31,00,41,9.60
2006,01,31,00,42,8.10
2006,01,31,00,43,9.60
2006,01,31,00,44,19.30
2006,01,31,00,45,19.30
2006,01,31,00,46,14.50
2006,01,31,00,47,14.50
2006,01,31,00,48,16.10
2006,01,31,00,49,17.70
2006,01,31,00,50,14.50
2006,01,31,00,51,9.60
2006,01,31,00,52,11.30
2006,01,31,00,53,11.30
2006,01,31,00,54,14.50
2006,01,31,00,55,6.40
2006,01,31,00,56,9.60
2006,01,31,00,57,12.90
2006,01,31,00,58,14.50
2006,01,31,00,59,14.50
2006,01,31,01,00,11.30
2006,01,31,01,01,8.10
2006,01,31,01,02,9.60
2006,01,31,01,03,16.10
2006,01,31,01,04,9.60
2006,01,31,01,05,9.60
2006,01,31,01,06,8.10
2006,01,31,01,07,9.60
2006,01,31,01,08,8.10
2006,01,31,01,09,9.60
2006,01,31,01,10,11.30
2006,01,31,01,11,12.90
2006,01,31,01,12,16.10
2006,01,31,01,13,6.40
2006,01,31,01,14,6.40
2006,01,31,01,15,6.40
2006,01,31,01,16,17.70
2006,01,31,01,17,8.10
2006,01,31,01,18,11.30
2006,01,31,01,19,12.90
2006,01,31,01,20,14.50
2006,01,31,01,21,12.90
2006,01,31,01,22,8.10
2006,01,31,01,23,6.40
2006,01,31,01,24,6.40
2006,01,31,01,25,11.30
2006,01,31,01,26,12.90
2006,01,31,01,27,19.30
2006,01,31,01,28,20.90
2006,01,31,01,29,14.50
2006,01,31,01,30,12.90
2006,01,31,01,31,16.10
2006,01,31,01,32,9.60
2006,01,31,01,33,11.30
2006,01,31,01,34,17.70
2006,01,31,01,35,12.90
2006,01,31,01,36,14.50
2006,01,31,01,37,16.10
2006,01,31,01,38,9.60
2006,01,31,01,39,9.60
2006,01,31,01,40,8.10
2006,01,31,01,41,8.10
2006,01,31,01,42,4.80
2006,01,31,01,43,4.80
2006,01,31,01,44,8.10
2006,01,31,01,45,8.10
2006,01,31,01,46,11.30
2006,01,31,01,47,8.10
2006,01,31,01,48,4.80
2006,01,31,01,49,3.20
2006,01,31,01,50,3.20
2006,01,31,01,51,4.80
2006,01,31,01,52,4.80
2006,01,31,01,53,4.80
2006,01,31,01,54,4.80
2006,01,31,01,55,4.80
2006,01,31,01,56,4.80
2006,01,31,01,57,4.80
2006,01,31,01,58,4.80
2006,01,31,01,59,4.80
2006,01,31,02,00,9.60
2006,01,31,02,01,8.10
2006,01,31,02,02,4.80
2006,01,31,02,03,4.80
2006,01,31,02,04,6.40
2006,01,31,02,05,8.10
2006,01,31,02,06,8.10
2006,01,31,02,07,6.40
2006,01,31,02,08,4.80
2006,01,31,02,09,6.40
2006,01,31,02,10,6.40
2006,01,31,02,11,4.80
2006,01,31,02,12,6.40
2006,01,31,02,13,6.40
2006,01,31,02,14,6.40
2006,01,31,02,15,6.40
2006,01,31,02,16,6.40
2006,01,31,02,17,8.10
2006,01,31,02,18,9.60
2006,01,31,02,19,6.40
2006,01,31,02,20,8.10
2006,01,31,02,21,8.10
2006,01,31,02,22,8.10
2006,01,31,02,23,8.10
2006,01,31,02,24,8.10
2006,01,31,02,25,8.10
2006,01,31,02,26,8.10
2006,01,31,02,27,11.30
2006,01,31,02,28,8.10
2006,01,31,02,29,9.60
2006,01,31,02,30,6.40
2006,01,31,02,31,9.60
2006,01,31,02,32,11.30
2006,01,31,02,33,14.50
2006,01,31,02,34,11.30
2006,01,31,02,35,8.10
2006,01,31,02,36,8.10
2006,01,31,02,37,6.40
2006,01,31,02,38,11.30
2006,01,31,02,39,9.60
2006,01,31,02,40,9.60
2006,01,31,02,41,8.10
2006,01,31,02,42,12.90
2006,01,31,02,43,11.30
2006,01,31,02,44,8.10
2006,01,31,02,45,11.30
2006,01,31,02,46,9.60
2006,01,31,02,47,9.60
2006,01,31,02,48,11.30
2006,01,31,02,49,8.10
2006,01,31,02,50,8.10
2006,01,31,02,51,8.10
2006,01,31,02,52,9.60
2006,01,31,02,53,8.10
2006,01,31,02,54,9.60
2006,01,31,02,55,9.60
2006,01,31,02,56,9.60
2006,01,31,02,57,12.90
2006,01,31,02,58,9.60
2006,01,31,02,59,14.50
2006,01,31,03,00,9.60
2006,01,31,03,01,9.60
2006,01,31,03,02,9.60
2006,01,31,03,03,8.10
2006,01,31,03,04,8.10
2006,01,31,03,05,6.40
2006,01,31,03,06,6.40
2006,01,31,03,07,6.40
2006,01,31,03,08,6.40
2006,01,31,03,09,8.10
2006,01,31,03,10,8.10
2006,01,31,03,11,9.60
2006,01,31,03,12,8.10
2006,01,31,03,13,9.60
2006,01,31,03,14,8.10
2006,01,31,03,15,6.40
2006,01,31,03,16,14.50
2006,01,31,03,17,14.50
2006,01,31,03,18,8.10
2006,01,31,03,19,6.40
2006,01,31,03,20,6.40
2006,01,31,03,21,11.30
2006,01,31,03,22,8.10
2006,01,31,03,23,8.10
2006,01,31,03,24,6.40
2006,01,31,03,25,9.60
2006,01,31,03,26,8.10
2006,01,31,03,27,6.40
2006,01,31,03,28,4.80
2006,01,31,03,29,4.80
2006,01,31,03,30,6.40
2006,01,31,03,31,6.40
2006,01,31,03,32,6.40
2006,01,31,03,33,4.80
2006,01,31,03,34,6.40
2006,01,31,03,35,4.80
2006,01,31,03,36,3.20
2006,01,31,03,37,3.20
2006,01,31,03,38,1.60
2006,01,31,03,39,1.60
2006,01,31,03,40,3.20
2006,01,31,03,41,3.20
2006,01,31,03,42,3.20
2006,01,31,03,43,4.80
2006,01,31,03,44,4.80
2006,01,31,03,45,3.20
2006,01,31,03,46,1.60
2006,01,31,03,47,3.20
2006,01,31,03,48,1.60
2006,01,31,03,49,3.20
2006,01,31,03,50,3.20
2006,01,31,03,51,3.20
2006,01,31,03,52,4.80
2006,01,31,03,53,4.80
2006,01,31,03,54,3.20
2006,01,31,03,55,3.20
2006,01,31,03,56,1.60
2006,01,31,03,57,3.20
2006,01,31,03,58,3.20
2006,01,31,03,59,3.20
2006,01,31,04,00,3.20
2006,01,31,04,01,1.60
2006,01,31,04,02,1.60
2006,01,31,04,03,4.80
2006,01,31,04,04,4.80
2006,01,31,04,05,3.20
2006,01,31,04,06,3.20
2006,01,31,04,07,1.60
2006,01,31,04,08,0.00
2006,01,31,04,09,0.00
2006,01,31,04,10,0.00
2006,01,31,04,11,0.00
2006,01,31,04,12,0.00
2006,01,31,04,13,0.00
2006,01,31,04,14,0.00
2006,01,31,04,15,0.00
2006,01,31,04,16,1.60
2006,01,31,04,17,3.20
2006,01,31,04,18,1.60
2006,01,31,04,19,1.60
2006,01,31,04,20,1.60
2006,01,31,04,21,0.00
2006,01,31,04,22,0.00
2006,01,31,04,23,0.00
2006,01,31,04,24,0.00
2006,01,31,04,25,0.00
2006,01,31,04,26,0.00
2006,01,31,04,27,0.00
2006,01,31,04,28,0.00
2006,01,31,04,29,0.00
2006,01,31,04,30,0.00
2006,01,31,04,31,0.00
2006,01,31,04,32,0.00
2006,01,31,04,33,0.00
2006,01,31,04,34,0.00
2006,01,31,04,35,1.60
2006,01,31,04,36,3.20
2006,01,31,04,37,3.20
2006,01,31,04,38,4.80
2006,01,31,04,39,6.40
2006,01,31,04,40,4.80
2006,01,31,04,41,4.80
2006,01,31,04,42,6.40
2006,01,31,04,43,4.80
2006,01,31,04,44,8.10
2006,01,31,04,45,8.10
2006,01,31,04,46,6.40
2006,01,31,04,47,4.80
2006,01,31,04,48,6.40
2006,01,31,04,49,12.90
2006,01,31,04,50,9.60
2006,01,31,04,51,6.40
2006,01,31,04,52,8.10
2006,01,31,04,53,8.10
2006,01,31,04,54,6.40
2006,01,31,04,55,4.80
2006,01,31,04,56,9.60
2006,01,31,04,57,9.60
2006,01,31,04,58,6.40
2006,01,31,04,59,9.60
2006,01,31,05,00,9.60
2006,01,31,05,01,4.80
2006,01,31,05,02,4.80
2006,01,31,05,03,4.80
2006,01,31,05,04,4.80
2006,01,31,05,05,4.80
2006,01,31,05,06,16.10
2006,01,31,05,07,14.50
2006,01,31,05,08,9.60
2006,01,31,05,09,8.10
2006,01,31,05,10,11.30
2006,01,31,05,11,8.10
2006,01,31,05,12,8.10
2006,01,31,05,13,8.10
2006,01,31,05,14,14.50
2006,01,31,05,15,9.60
2006,01,31,05,16,8.10
2006,01,31,05,17,3.20
2006,01,31,05,18,3.20
2006,01,31,05,19,4.80
2006,01,31,05,20,6.40
2006,01,31,05,21,4.80
2006,01,31,05,22,3.20
2006,01,31,05,23,4.80
2006,01,31,05,24,4.80
2006,01,31,05,25,8.10
2006,01,31,05,26,4.80
2006,01,31,05,27,8.10
2006,01,31,05,28,6.40
2006,01,31,05,29,11.30
2006,01,31,05,30,8.10
2006,01,31,05,31,6.40
2006,01,31,05,32,16.10
2006,01,31,05,33,6.40
2006,01,31,05,34,8.10
2006,01,31,05,35,8.10
2006,01,31,05,36,3.20
2006,01,31,05,37,4.80
2006,01,31,05,38,4.80
2006,01,31,05,39,9.60
2006,01,31,05,40,8.10
2006,01,31,05,41,14.50
2006,01,31,05,42,8.10
2006,01,31,05,43,6.40
2006,01,31,05,44,4.80
2006,01,31,05,45,8.10
2006,01,31,05,46,6.40
2006,01,31,05,47,6.40
2006,01,31,05,48,6.40
2006,01,31,05,49,3.20
2006,01,31,05,50,3.20
2006,01,31,05,51,1.60
2006,01,31,05,52,3.20
2006,01,31,05,53,6.40
2006,01,31,05,54,6.40
2006,01,31,05,55,6.40
2006,01,31,05,56,0.00
2006,01,31,05,57,0.00
2006,01,31,05,58,0.00
2006,01,31,05,59,6.40
2006,01,31,06,00,11.30
2006,01,31,06,01,6.40
2006,01,31,06,02,8.10
2006,01,31,06,03,11.30
2006,01,31,06,04,12.90
2006,01,31,06,05,4.80
2006,01,31,06,06,3.20
2006,01,31,06,07,6.40
2006,01,31,06,08,1.60
2006,01,31,06,09,6.40
2006,01,31,06,10,6.40
2006,01,31,06,11,3.20
2006,01,31,06,12,3.20
2006,01,31,06,13,3.20
2006,01,31,06,14,6.40
2006,01,31,06,15,3.20
2006,01,31,06,16,1.60
2006,01,31,06,17,4.80
2006,01,31,06,18,3.20
2006,01,31,06,19,8.10
2006,01,31,06,20,6.40
2006,01,31,06,21,6.40
2006,01,31,06,22,1.60
2006,01,31,06,23,6.40
2006,01,31,06,24,6.40
2006,01,31,06,25,4.80
2006,01,31,06,26,1.60
2006,01,31,06,27,4.80
2006,01,31,06,28,1.60
2006,01,31,06,29,1.60
2006,01,31,06,30,3.20
2006,01,31,06,31,4.80
2006,01,31,06,32,6.40
2006,01,31,06,33,9.60
2006,01,31,06,34,4.80
2006,01,31,06,35,4.80
2006,01,31,06,36,6.40
2006,01,31,06,37,4.80
2006,01,31,06,38,4.80
2006,01,31,06,39,3.20
2006,01,31,06,40,14.50
2006,01,31,06,41,6.40
2006,01,31,06,42,6.40
2006,01,31,06,43,4.80
2006,01,31,06,44,4.80
2006,01,31,06,45,8.10
2006,01,31,06,46,8.10
2006,01,31,06,47,14.50
2006,01,31,06,48,8.10
2006,01,31,06,49,8.10
2006,01,31,06,50,8.10
2006,01,31,06,51,9.60
2006,01,31,06,52,9.60
2006,01,31,06,53,8.10
2006,01,31,06,54,8.10
2006,01,31,06,55,9.60
2006,01,31,06,56,9.60
2006,01,31,06,57,8.10
2006,01,31,06,58,14.50
2006,01,31,06,59,9.60
2006,01,31,07,00,9.60
2006,01,31,07,01,8.10
2006,01,31,07,02,6.40
2006,01,31,07,03,8.10
2006,01,31,07,04,6.40
2006,01,31,07,05,8.10
2006,01,31,07,06,3.20
2006,01,31,07,07,4.80
2006,01,31,07,08,8.10
2006,01,31,07,09,11.30
2006,01,31,07,10,8.10
2006,01,31,07,11,8.10
2006,01,31,07,12,11.30
2006,01,31,07,13,6.40
2006,01,31,07,14,6.40
2006,01,31,07,15,4.80
2006,01,31,07,16,8.10
2006,01,31,07,17,3.20
2006,01,31,07,18,4.80
2006,01,31,07,19,4.80
2006,01,31,07,20,6.40
2006,01,31,07,21,6.40
2006,01,31,07,22,9.60
2006,01,31,07,23,11.30
2006,01,31,07,24,11.30
2006,01,31,07,25,4.80
2006,01,31,07,26,4.80
2006,01,31,07,27,8.10
2006,01,31,07,28,8.10
2006,01,31,07,29,8.10
2006,01,31,07,30,6.40
2006,01,31,07,31,8.10
2006,01,31,07,32,8.10
2006,01,31,07,33,9.60
2006,01,31,07,34,8.10
2006,01,31,07,35,8.10
2006,01,31,07,36,6.40
2006,01,31,07,37,4.80
2006,01,31,07,38,6.40
2006,01,31,07,39,8.10
2006,01,31,07,40,4.80
2006,01,31,07,41,6.40
2006,01,31,07,42,4.80
2006,01,31,07,43,4.80
2006,01,31,07,44,4.80
2006,01,31,07,45,9.60
2006,01,31,07,46,9.60
2006,01,31,07,47,6.40
2006,01,31,07,48,6.40
2006,01,31,07,49,9.60
2006,01,31,07,50,9.60
2006,01,31,07,51,6.40
2006,01,31,07,52,9.60
2006,01,31,07,53,8.10
2006,01,31,07,54,9.60
2006,01,31,07,55,8.10
2006,01,31,07,56,9.60
2006,01,31,07,57,9.60
2006,01,31,07,58,9.60
2006,01,31,07,59,14.50
2006,01,31,08,00,14.50
2006,01,31,08,01,8.10
2006,01,31,08,02,9.60
2006,01,31,08,03,11.30
2006,01,31,08,04,14.50
2006,01,31,08,05,14.50
2006,01,31,08,06,6.40
2006,01,31,08,07,6.40
2006,01,31,08,08,6.40
2006,01,31,08,09,12.90
2006,01,31,08,10,16.10
2006,01,31,08,11,12.90
2006,01,31,08,12,6.40
2006,01,31,08,13,17.70
2006,01,31,08,14,17.70
2006,01,31,08,15,12.90
2006,01,31,08,16,9.60
2006,01,31,08,17,14.50
2006,01,31,08,18,12.90
2006,01,31,08,19,16.10
2006,01,31,08,20,6.40
2006,01,31,08,21,8.10
2006,01,31,08,22,8.10
2006,01,31,08,23,8.10
2006,01,31,08,24,9.60
2006,01,31,08,25,9.60
2006,01,31,08,26,6.40
2006,01,31,08,27,9.60
2006,01,31,08,28,8.10
2006,01,31,08,29,11.30
2006,01,31,08,30,14.50
2006,01,31,08,31,11.30
2006,01,31,08,32,16.10
2006,01,31,08,33,11.30
2006,01,31,08,34,11.30
2006,01,31,08,35,6.40
2006,01,31,08,36,9.60
2006,01,31,08,37,8.10
2006,01,31,08,38,6.40
2006,01,31,08,39,11.30
2006,01,31,08,40,8.10
2006,01,31,08,41,6.40
2006,01,31,08,42,8.10
2006,01,31,08,43,8.10
2006,01,31,08,44,6.40
2006,01,31,08,45,4.80
2006,01,31,08,46,3.20
2006,01,31,08,47,1.60
2006,01,31,08,48,3.20
2006,01,31,08,49,4.80
2006,01,31,08,50,4.80
2006,01,31,08,51,6.40
2006,01,31,08,52,14.50
2006,01,31,08,53,14.50
2006,01,31,08,54,11.30
2006,01,31,08,55,6.40
2006,01,31,08,56,11.30
2006,01,31,08,57,8.10
2006,01,31,08,58,8.10
2006,01,31,08,59,8.10
2006,01,31,09,00,1.60
2006,01,31,09,01,3.20
2006,01,31,09,02,8.10
2006,01,31,09,03,9.60
2006,01,31,09,04,9.60
2006,01,31,09,05,6.40
2006,01,31,09,06,8.10
2006,01,31,09,07,8.10
2006,01,31,09,08,4.80
2006,01,31,09,09,6.40
2006,01,31,09,10,16.10
2006,01,31,09,11,9.60
2006,01,31,09,12,9.60
2006,01,31,09,13,9.60
2006,01,31,09,14,9.60
2006,01,31,09,15,11.30
2006,01,31,09,16,8.10
2006,01,31,09,17,9.60
2006,01,31,09,18,9.60
2006,01,31,09,19,6.40
2006,01,31,09,20,6.40
2006,01,31,09,21,6.40
2006,01,31,09,22,9.60
2006,01,31,09,23,16.10
2006,01,31,09,24,9.60
2006,01,31,09,25,6.40
2006,01,31,09,26,11.30
2006,01,31,09,27,9.60
2006,01,31,09,28,6.40
2006,01,31,09,29,6.40
2006,01,31,09,30,12.90
2006,01,31,09,31,16.10
2006,01,31,09,32,12.90
2006,01,31,09,33,11.30
2006,01,31,09,34,3.20
2006,01,31,09,35,3.20
2006,01,31,09,36,11.30
2006,01,31,09,37,9.60
2006,01,31,09,38,9.60
2006,01,31,09,39,11.30
2006,01,31,09,40,14.50
2006,01,31,09,41,14.50
2006,01,31,09,42,9.60
2006,01,31,09,43,14.50
2006,01,31,09,44,12.90
2006,01,31,09,45,14.50
2006,01,31,09,46,16.10
2006,01,31,09,47,11.30
2006,01,31,09,48,9.60
2006,01,31,09,49,16.10
2006,01,31,09,50,11.30
2006,01,31,09,51,12.90
2006,01,31,09,52,19.30
2006,01,31,09,53,19.30
2006,01,31,09,54,19.30
2006,01,31,09,55,19.30
2006,01,31,09,56,17.70
2006,01,31,09,57,16.10
2006,01,31,09,58,19.30
2006,01,31,09,59,22.50
2006,01,31,10,00,20.90
2006,01,31,10,01,19.30
2006,01,31,10,02,14.50
2006,01,31,10,03,19.30
2006,01,31,10,04,19.30
2006,01,31,10,05,22.50
2006,01,31,10,06,20.90
2006,01,31,10,07,16.10
2006,01,31,10,08,17.70
2006,01,31,10,09,14.50
2006,01,31,10,10,20.90
2006,01,31,10,11,20.90
2006,01,31,10,12,16.10
2006,01,31,10,13,20.90
2006,01,31,10,14,16.10
2006,01,31,10,15,19.30
2006,01,31,10,16,24.20
2006,01,31,10,17,14.50
2006,01,31,10,18,17.70
2006,01,31,10,19,8.10
2006,01,31,10,20,16.10
2006,01,31,10,21,16.10
2006,01,31,10,22,8.10
2006,01,31,10,23,17.70
2006,01,31,10,24,19.30
2006,01,31,10,25,12.90
2006,01,31,10,26,14.50
2006,01,31,10,27,12.90
2006,01,31,10,28,11.30
2006,01,31,10,29,11.30
2006,01,31,10,30,11.30
2006,01,31,10,31,16.10
2006,01,31,10,32,16.10
2006,01,31,10,33,16.10
2006,01,31,10,34,16.10
2006,01,31,10,35,16.10
2006,01,31,10,36,16.10
2006,01,31,10,37,16.10
2006,01,31,10,38,16.10
2006,01,31,10,39,14.50
2006,01,31,10,40,9.60
2006,01,31,10,41,9.60
2006,01,31,10,42,9.60
2006,01,31,10,43,11.30
2006,01,31,10,44,11.30
2006,01,31,10,45,17.70
2006,01,31,10,46,9.60
2006,01,31,10,47,11.30
2006,01,31,10,48,11.30
2006,01,31,10,49,8.10
2006,01,31,10,50,4.80
2006,01,31,10,51,1.60
2006,01,31,10,52,8.10
2006,01,31,10,53,11.30
2006,01,31,10,54,6.40
2006,01,31,10,55,3.20
2006,01,31,10,56,3.20
2006,01,31,10,57,3.20
2006,01,31,10,58,3.20
2006,01,31,10,59,4.80
2006,01,31,11,00,4.80
2006,01,31,11,01,4.80
2006,01,31,11,02,4.80
2006,01,31,11,03,4.80
2006,01,31,11,04,8.10
2006,01,31,11,05,6.40
2006,01,31,11,06,6.40
2006,01,31,11,07,4.80
2006,01,31,11,08,3.20
2006,01,31,11,09,3.20
2006,01,31,11,10,4.80
2006,01,31,11,11,3.20
2006,01,31,11,12,6.40
2006,01,31,11,13,4.80
2006,01,31,11,14,4.80
2006,01,31,11,15,4.80
2006,01,31,11,16,8.10
2006,01,31,11,17,6.40
2006,01,31,11,18,9.60
2006,01,31,11,19,9.60
2006,01,31,11,20,9.60
2006,01,31,11,21,8.10
2006,01,31,11,22,9.60
2006,01,31,11,23,9.60
2006,01,31,11,24,12.90
2006,01,31,11,25,14.50
2006,01,31,11,26,9.60
2006,01,31,11,27,20.90
2006,01,31,11,28,24.20
2006,01,31,11,29,19.30
2006,01,31,11,30,11.30
2006,01,31,11,31,20.90
2006,01,31,11,32,16.10
2006,01,31,11,33,20.90
2006,01,31,11,34,9.60
2006,01,31,11,35,6.40
2006,01,31,11,36,8.10
2006,01,31,11,37,6.40
2006,01,31,11,38,8.10
2006,01,31,11,39,20.90
2006,01,31,11,40,20.90
2006,01,31,11,41,14.50
2006,01,31,11,42,11.30
2006,01,31,11,43,16.10
2006,01,31,11,44,9.60
2006,01,31,11,45,9.60
2006,01,31,11,46,4.80
2006,01,31,11,47,4.80
2006,01,31,11,48,6.40
2006,01,31,11,49,6.40
2006,01,31,11,50,16.10
2006,01,31,11,51,14.50
2006,01,31,11,52,12.90
2006,01,31,11,53,8.10
2006,01,31,11,54,9.60
2006,01,31,11,55,17.70
2006,01,31,11,56,16.10
2006,01,31,11,57,20.90
2006,01,31,11,58,14.50
2006,01,31,11,59,24.20
2006,01,31,12,00,22.50
2006,01,31,12,01,22.50
2006,01,31,12,02,22.50
2006,01,31,12,03,22.50
2006,01,31,12,04,19.30
2006,01,31,12,05,24.20
2006,01,31,12,06,24.20
2006,01,31,12,07,19.30
2006,01,31,12,08,19.30
2006,01,31,12,09,17.70
2006,01,31,12,10,22.50
2006,01,31,12,11,19.30
2006,01,31,12,12,17.70
2006,01,31,12,13,19.30
2006,01,31,12,14,19.30
2006,01,31,12,15,11.30
2006,01,31,12,16,16.10
2006,01,31,12,17,16.10
2006,01,31,12,18,11.30
2006,01,31,12,19,20.90
2006,01,31,12,20,25.70
2006,01,31,12,21,29.00
2006,01,31,12,22,24.20
2006,01,31,12,23,11.30
2006,01,31,12,24,6.40
2006,01,31,12,25,19.30
2006,01,31,12,26,19.30
2006,01,31,12,27,11.30
2006,01,31,12,28,19.30
2006,01,31,12,29,25.70
2006,01,31,12,30,25.70
2006,01,31,12,31,30.60
2006,01,31,12,32,19.30
2006,01,31,12,33,20.90
2006,01,31,12,34,17.70
2006,01,31,12,35,25.70
2006,01,31,12,36,19.30
2006,01,31,12,37,25.70
2006,01,31,12,38,16.10
2006,01,31,12,39,17.70
2006,01,31,12,40,20.90
2006,01,31,12,41,33.80
2006,01,31,12,42,25.70
2006,01,31,12,43,16.10
2006,01,31,12,44,11.30
2006,01,31,12,45,25.70
2006,01,31,12,46,27.40
2006,01,31,12,47,22.50
2006,01,31,12,48,9.60
2006,01,31,12,49,4.80
2006,01,31,12,50,30.60
2006,01,31,12,51,17.70
2006,01,31,12,52,17.70
2006,01,31,12,53,25.70
2006,01,31,12,54,37.00
2006,01,31,12,55,38.60
2006,01,31,12,56,33.80
2006,01,31,12,57,22.50
2006,01,31,12,58,33.80
2006,01,31,12,59,30.60
2006,01,31,13,00,25.70
2006,01,31,13,01,24.20
2006,01,31,13,02,25.70
2006,01,31,13,03,37.00
2006,01,31,13,04,46.70
2006,01,31,13,05,37.00
2006,01,31,13,06,35.40
2006,01,31,13,07,29.00
2006,01,31,13,08,37.00
2006,01,31,13,09,29.00
2006,01,31,13,10,33.80
2006,01,31,13,11,35.40
2006,01,31,13,12,32.20
2006,01,31,13,13,33.80
2006,01,31,13,14,43.50
2006,01,31,13,15,45.10
2006,01,31,13,16,41.80
2006,01,31,13,17,43.50
2006,01,31,13,18,48.30
2006,01,31,13,19,30.60
2006,01,31,13,20,45.10
2006,01,31,13,21,48.30
2006,01,31,13,22,37.00
2006,01,31,13,23,40.20
2006,01,31,13,24,38.60
2006,01,31,13,25,35.40
2006,01,31,13,26,24.20
2006,01,31,13,27,38.60
2006,01,31,13,28,43.50
2006,01,31,13,29,49.90
2006,01,31,13,30,38.60
2006,01,31,13,31,37.00
2006,01,31,13,32,37.00
2006,01,31,13,33,32.20
2006,01,31,13,34,41.80
2006,01,31,13,35,30.60
2006,01,31,13,36,20.90
2006,01,31,13,37,49.90
2006,01,31,13,38,46.70
2006,01,31,13,39,46.70
2006,01,31,13,40,37.00
2006,01,31,13,41,51.50
2006,01,31,13,42,48.30
2006,01,31,13,43,38.60
2006,01,31,13,44,45.10
2006,01,31,13,45,41.80
2006,01,31,13,46,37.00
2006,01,31,13,47,43.50
2006,01,31,13,48,43.50
2006,01,31,13,49,43.50
2006,01,31,13,50,37.00
2006,01,31,13,51,33.80
2006,01,31,13,52,37.00
2006,01,31,13,53,38.60
2006,01,31,13,54,37.00
2006,01,31,13,55,48.30
2006,01,31,13,56,57.90
2006,01,31,13,57,57.90
2006,01,31,13,58,46.70
2006,01,31,13,59,41.80
2006,01,31,14,00,29.00
2006,01,31,14,01,29.00
2006,01,31,14,02,38.60
2006,01,31,14,03,49.90
2006,01,31,14,04,45.10
2006,01,31,14,05,29.00
2006,01,31,14,06,41.80
2006,01,31,14,07,57.90
2006,01,31,14,08,37.00
2006,01,31,14,09,48.30
2006,01,31,14,10,49.90
2006,01,31,14,11,49.90
2006,01,31,14,12,49.90
2006,01,31,14,13,57.90
2006,01,31,14,14,54.70
2006,01,31,14,15,62.70
2006,01,31,14,16,57.90
2006,01,31,14,17,56.30
2006,01,31,14,18,46.70
2006,01,31,14,19,51.50
2006,01,31,14,20,62.70
2006,01,31,14,21,54.70
2006,01,31,14,22,53.10
2006,01,31,14,23,53.10
2006,01,31,14,24,57.90
2006,01,31,14,25,37.00
2006,01,31,14,26,48.30
2006,01,31,14,27,46.70
2006,01,31,14,28,51.50
2006,01,31,14,29,54.70
2006,01,31,14,30,53.10
2006,01,31,14,31,53.10
2006,01,31,14,32,53.10
2006,01,31,14,33,53.10
2006,01,31,14,34,54.70
2006,01,31,14,35,40.20
2006,01,31,14,36,53.10
2006,01,31,14,37,51.50
2006,01,31,14,38,66.00
2006,01,31,14,39,54.70
2006,01,31,14,40,33.80
2006,01,31,14,41,38.60
2006,01,31,14,42,49.90
2006,01,31,14,43,40.20
2006,01,31,14,44,53.10
2006,01,31,14,45,61.20
2006,01,31,14,46,53.10
2006,01,31,14,47,48.30
2006,01,31,14,48,51.50
2006,01,31,14,49,51.50
2006,01,31,14,50,62.70
2006,01,31,14,51,77.30
2006,01,31,14,52,75.60
2006,01,31,14,53,49.90
2006,01,31,14,54,40.20
2006,01,31,14,55,57.90
2006,01,31,14,56,64.40
2006,01,31,14,57,64.40
2006,01,31,14,58,38.60
2006,01,31,14,59,53.10
2006,01,31,15,00,49.90
2006,01,31,15,01,43.50
2006,01,31,15,02,62.70
2006,01,31,15,03,57.90
2006,01,31,15,04,57.90
2006,01,31,15,05,56.30
2006,01,31,15,06,46.70
2006,01,31,15,07,53.10
2006,01,31,15,08,38.60
2006,01,31,15,09,49.90
2006,01,31,15,10,29.00
2006,01,31,15,11,64.40
2006,01,31,15,12,45.10
2006,01,31,15,13,56.30
2006,01,31,15,14,64.40
2006,01,31,15,15,70.80
2006,01,31,15,16,41.80
2006,01,31,15,17,49.90
2006,01,31,15,18,56.30
2006,01,31,15,19,61.20
2006,01,31,15,20,49.90
2006,01,31,15,21,66.00
2006,01,31,15,22,49.90
2006,01,31,15,23,37.00
2006,01,31,15,24,48.30
2006,01,31,15,25,49.90
2006,01,31,15,26,62.70
2006,01,31,15,27,45.10
2006,01,31,15,28,64.40
2006,01,31,15,29,54.70
2006,01,31,15,30,48.30
2006,01,31,15,31,57.90
2006,01,31,15,32,56.30
2006,01,31,15,33,49.90
2006,01,31,15,34,48.30
2006,01,31,15,35,54.70
2006,01,31,15,36,54.70
2006,01,31,15,37,51.50
2006,01,31,15,38,48.30
2006,01,31,15,39,46.70
2006,01,31,15,40,46.70
2006,01,31,15,41,74.00
2006,01,31,15,42,25.70
2006,01,31,15,43,54.70
2006,01,31,15,44,64.40
2006,01,31,15,45,37.00
2006,01,31,15,46,77.30
2006,01,31,15,47,51.50
2006,01,31,15,48,45.10
2006,01,31,15,49,62.70
2006,01,31,15,50,46.70
2006,01,31,15,51,35.40
2006,01,31,15,52,53.10
2006,01,31,15,53,70.80
2006,01,31,15,54,40.20
2006,01,31,15,55,56.30
2006,01,31,15,56,59.50
2006,01,31,15,57,46.70
2006,01,31,15,58,43.50
2006,01,31,15,59,43.50
2006,01,31,16,00,43.50
2006,01,31,16,01,74.00
2006,01,31,16,02,54.70
2006,01,31,16,03,40.20
2006,01,31,16,04,54.70
2006,01,31,16,05,48.30
2006,01,31,16,06,43.50
2006,01,31,16,07,75.60
2006,01,31,16,08,43.50
2006,01,31,16,09,32.20
2006,01,31,16,10,33.80
2006,01,31,16,11,48.30
2006,01,31,16,12,41.80
2006,01,31,16,13,48.30
2006,01,31,16,14,53.10
2006,01,31,16,15,49.90
2006,01,31,16,16,35.40
2006,01,31,16,17,67.60
2006,01,31,16,18,53.10
2006,01,31,16,19,77.30
2006,01,31,16,20,53.10
2006,01,31,16,21,53.10
2006,01,31,16,22,61.20
2006,01,31,16,23,45.10
2006,01,31,16,24,53.10
2006,01,31,16,25,53.10
2006,01,31,16,26,53.10
2006,01,31,16,27,72.40
2006,01,31,16,28,70.80
2006,01,31,16,29,62.70
2006,01,31,16,30,64.40
2006,01,31,16,31,51.50
2006,01,31,16,32,53.10
2006,01,31,16,33,66.00
2006,01,31,16,34,80.50
2006,01,31,16,35,53.10
2006,01,31,16,36,57.90
2006,01,31,16,37,64.40
2006,01,31,16,38,59.50
2006,01,31,16,39,41.80
2006,01,31,16,40,56.30
2006,01,31,16,41,54.70
2006,01,31,16,42,59.50
2006,01,31,16,43,38.60
2006,01,31,16,44,46.70
2006,01,31,16,45,64.40
2006,01,31,16,46,41.80
2006,01,31,16,47,48.30
2006,01,31,16,48,57.90
2006,01,31,16,49,67.60
2006,01,31,16,50,62.70
2006,01,31,16,51,43.50
2006,01,31,16,52,82.10
2006,01,31,16,53,77.30
2006,01,31,16,54,64.40
2006,01,31,16,55,69.20
2006,01,31,16,56,61.20
2006,01,31,16,57,51.50
2006,01,31,16,58,62.70
2006,01,31,16,59,56.30
2006,01,31,17,00,48.30
2006,01,31,17,01,48.30
2006,01,31,17,02,59.50
2006,01,31,17,03,53.10
2006,01,31,17,04,54.70
2006,01,31,17,05,61.20
2006,01,31,17,06,64.40
2006,01,31,17,07,61.20
2006,01,31,17,08,53.10
2006,01,31,17,09,49.90
2006,01,31,17,10,46.70
2006,01,31,17,11,56.30
2006,01,31,17,12,51.50
2006,01,31,17,13,53.10
2006,01,31,17,14,49.90
2006,01,31,17,15,51.50
2006,01,31,17,16,69.20
2006,01,31,17,17,56.30
2006,01,31,17,18,46.70
2006,01,31,17,19,48.30
2006,01,31,17,20,35.40
2006,01,31,17,21,53.10
2006,01,31,17,22,66.00
2006,01,31,17,23,66.00
2006,01,31,17,24,67.60
2006,01,31,17,25,57.90
2006,01,31,17,26,53.10
2006,01,31,17,27,43.50
2006,01,31,17,28,43.50
2006,01,31,17,29,35.40
2006,01,31,17,30,62.70
2006,01,31,17,31,56.30
2006,01,31,17,32,48.30
2006,01,31,17,33,56.30
2006,01,31,17,34,61.20
2006,01,31,17,35,54.70
2006,01,31,17,36,57.90
2006,01,31,17,37,61.20
2006,01,31,17,38,51.50
2006,01,31,17,39,67.60
2006,01,31,17,40,72.40
2006,01,31,17,41,53.10
2006,01,31,17,42,62.70